Location: Bathurst
(33.4193°S, 149.5775°E)
Time: 03:48:55
(UTC+10:00)

XW-2B - Visible Passes

Search period start: 17 April 2021 00:00
Search period end: 27 April 2021 00:00
Orbit: 505 x 526 km, 97.5° (Epoch: 16 April)

Date Brightness Start Highest point End Pass type
(mag) Time Alt. Az. Time Alt. Az. Time Alt. Az.
17 Apr ? 04:28:27 10° ENE 04:31:09 18° ESE 04:33:52 10° SSE visible
17 Apr ? 06:01:52 10° NNW 06:04:59 23° W 06:08:08 10° SW visible
17 Apr ? 19:13:41 10° WSW 19:13:59 10° WSW 19:14:18 10° WSW visible
18 Apr ? 04:14:48 10° E 04:16:22 12° ESE 04:17:56 10° SE visible
18 Apr ? 05:46:27 10° NNW 05:50:00 37° W 05:53:38 10° SSW visible
18 Apr ? 18:56:54 10° SSW 18:59:13 16° WSW 19:01:30 10° WNW visible
19 Apr ? 05:31:16 10° N 05:35:04 60° W 05:38:55 10° SSW visible
19 Apr ? 18:41:20 10° SSW 18:44:25 23° WSW 18:47:27 10° NW visible
20 Apr ? 05:16:19 10° NNE 05:20:09 83° ESE 05:24:02 10° S visible
20 Apr ? 18:26:03 10° S 18:29:35 36° WSW 18:33:02 10° NW visible
21 Apr ? 05:01:32 10° NNE 05:05:15 50° ESE 05:09:02 10° S visible
21 Apr ? 18:10:57 10° S 18:14:42 60° WSW 18:18:23 10° NNW visible
22 Apr ? 04:46:58 10° NE 04:50:24 31° ESE 04:53:52 10° S visible
22 Apr ? 17:55:59 10° SSE 17:59:48 83° ENE 18:03:31 10° N visible
23 Apr ? 04:32:40 10° ENE 04:35:34 21° ESE 04:38:30 10° SSE visible
24 Apr ? 04:18:46 10° E 04:20:46 14° ESE 04:22:46 10° SE visible
24 Apr ? 05:51:01 10° NNW 05:54:28 32° W 05:57:58 10° SSW visible
24 Apr ? 19:01:39 10° SW 19:03:36 14° WSW 19:05:31 10° W visible
25 Apr ? 05:35:46 10° N 05:39:30 52° W 05:43:18 10° SSW visible
25 Apr ? 18:45:55 10° SSW 18:48:47 21° WSW 18:51:37 10° WNW visible
26 Apr ? 05:20:44 10° N 05:24:34 86° WNW 05:28:27 10° SSW visible
26 Apr ? 18:30:33 10° S 18:33:57 32° WSW 18:37:17 10° NW visible
